Flag for U.S.A. Weather past 2 weeks in Black Mountain, North Carolina, U.S.A.

Now
84 °F

Sunny.


Feels Like: 83 °F
Forecast: 59 / 85 °F
Wind: N/A

Location: Asheville Regional Airport

Current Time: Aug 2, 2015 at 3:04:39 PM

Latest Report: Aug 2, 2015 at 1:54 PM


Visibility: 10 mi

Pressure: 29.97 "Hg (27.59 "Hg at 729m altitude)

Humidity: 38%

Dew point: 56 °F

Location of Black MountainLocation

Historic Weather in Black Mountain — Graph

°F

Black Mountain temperature yesterday

Maximum temperature yesterday: 86 °F (at 3:54 PM)
Minimum temperature yesterday: 65 °F (at 6:54 AM)
Average temperature yesterday: 75 °F

Past Weeks' High & Low Weather Summary

 TemperatureHumidityPressure
High90 °F (Jul 19, 3:54 PM)96% (Jul 26, 7:54 AM)30.13 "Hg (Jul 26, 7:54 AM)
Low58 °F (Aug 2, 6:54 AM)29% (Aug 1, 2:54 PM)29.79 "Hg (Jul 21, 4:54 PM)
Average76 °F72%29.96 "Hg
* Reported Jul 18 1:54 PM — Aug 2 1:54 PM, Black Mountain, Weather by CustomWeather, © 2015

Note: Actual official high and low records may vary slightly from our data, if they occured in-between our weather recording intervals... More about our weather records

Advertising

Black Mountain weather history for previous 24 hours

 ConditionsComfort  
Time TempWeatherWind HumidityBarometerVisibility
1:54 PM
Sun, Aug 2
84 °FSunny.N/A38%29.97 "Hg10 mi
12:54 PM83 °FSunny.8 mph41%29.98 "Hg10 mi
11:54 AM79 °FSunny.No wind52%30.00 "Hg10 mi
10:54 AM77 °FSunny.3 mph54%30.00 "Hg10 mi
9:54 AM73 °FScattered clouds.5 mph64%30.01 "Hg10 mi
8:54 AM68 °FScattered clouds.No wind70%30.01 "Hg10 mi
7:54 AM61 °FSunny.3 mph83%30.00 "Hg10 mi
6:54 AM58 °FClear.5 mph90%29.99 "Hg10 mi
5:54 AM61 °FClear.3 mph83%29.96 "Hg10 mi
4:54 AM61 °FClear.8 mph83%29.96 "Hg10 mi
3:54 AM61 °FClear.5 mph83%29.96 "Hg10 mi
2:54 AM61 °FClear.5 mph83%29.96 "Hg10 mi
1:54 AM63 °FClear.No wind81%29.97 "Hg10 mi
12:54 AM63 °FClear.No wind84%29.98 "Hg10 mi
11:54 PM
Sat, Aug 1
66 °FClear.6 mph75%29.97 "Hg10 mi
10:54 PM69 °FClear.5 mph66%29.97 "Hg10 mi
9:54 PM71 °FClear.6 mph61%29.97 "Hg10 mi
8:54 PM76 °FSunny.6 mph48%29.94 "Hg10 mi
7:54 PM81 °FSunny.9 mph38%29.93 "Hg10 mi
6:54 PM83 °FSunny.13 mph34%29.93 "Hg10 mi
5:54 PM85 °FSunny.12 mph31%29.93 "Hg10 mi
4:54 PM85 °FSunny.13 mph32%29.94 "Hg10 mi
3:54 PM86 °FSunny.13 mph29%29.95 "Hg10 mi
Weather by CustomWeather, © 2015

See weather overviewHow to use our weather pages